Tracking 29090 objects as of 16-Jul-2024
HD Live streaming from Space Station
objects crossing your sky now

OPS 4029

Track OPS 4029 now!
OPS 4029 is classified as:


NORAD ID: 12930
Int'l Code: 1981-107A
Perigee: 31,494.8 km
Apogee: 40,053.8 km
Inclination: 5.6 °
Period: 1,435.1 minutes
Semi major axis: 42145 km
RCS: Unknown
Launch date: October 31, 1981
Source: United States (US)
Launch site: AIR FORCE EASTERN TEST RANGE (AFETR)
Your satellite tracking list
Your tracking list is empty




NASA's NSSDC Master Catalog

Two Line Element Set (TLE):
1 12930U 81107A   24197.33940788 -.00000302  00000-0  00000-0 0  9993
2 12930   5.5902 355.2925 1015415  37.4488 336.1349  1.00341118   839
Source of the keplerian elements: McCants